Weather History for Driggs, ID

Change the Weather History Date:

Thursday, September 19, 2013

  Actual Average (KRXE) Record (KRXE)
Temperature  
Mean Temperature 44 °F 54 °F  
Max Temperature 57 °F 70 °F 85 °F (2009)
Min Temperature 32 °F 39 °F 28 °F (2003)
Degree Days  
Heating Degree Days 20 11  
Month to date heating degree days 142  
Since 1 July heating degree days 215  
Cooling Degree Days 0 0  
Month to date cooling degree days 5  
Year to date cooling degree days 207  
Moisture  
Dew Point 34 °F    
Average Humidity 72    
Maximum Humidity 97    
Minimum Humidity 37    
Precipitation  
Precipitation 0.00 in 0.04 in 0.12 in (2004)
Month to date precipitation 0.56  
Year to date precipitation 9.48  
Sea Level Pressure  
Sea Level Pressure 30.14 in    
Wind  
Wind Speed 4 mph (East)    
Max Wind Speed 7 mph    
Max Gust Speed -    
Visibility 10 miles    
Events      
T = Trace of Precipitation, MM = Missing Value Source: NWS Daily Summary

Daily Weather History Graph

Daily Weather History Graph

Search for Another Location

Airport:

Trip Planner

Search our weather history database for the weather conditions in past years. The results will help you decide how hot, cold, wet, or windy it might be!

Date:

Astronomy

Sep. 19, 2013 Rise Set
Actual Time 7:08 AM MDT 7:26 PM MDT
Civil Twilight 6:39 AM MDT 7:55 PM MDT
Nautical Twilight 6:05 AM MDT 8:29 PM MDT
Astronomical Twilight 5:31 AM MDT 9:03 PM MDT
Moon 7:24 PM MDT (9/19) 7:23 AM MDT (9/19)
Length of Visible Light 13h 15m
Length of Day
12h 18m
Full, 100% of the Moon is Illuminated
Sep 19
Full
Sep 26
Last Quarter
Oct 4
New
Oct 11
First Quarter
Oct 18
Full

Hourly Weather History & Observations

Time (MDT) Temp. Windchill Dew Point Humidity Pressure Visibility Wind Dir Wind Speed Gust Speed Precip Events Conditions
12:56 AM 34.9 °F 30.8 °F 34.0 °F 97% 30.08 in 10.0 mi East 4.6 mph - N/A   Clear
1:56 AM 37.9 °F - 36.0 °F 93% 30.08 in 10.0 mi Calm Calm - N/A   Mostly Cloudy
2:56 AM 36.9 °F - 34.9 °F 93% 30.09 in 10.0 mi Calm Calm - N/A   Overcast
3:56 AM 36.9 °F 32.2 °F 36.0 °F 97% 30.08 in 10.0 mi ESE 5.8 mph - N/A   Partly Cloudy
4:56 AM 32.9 °F 27.5 °F 32.0 °F 96% 30.11 in 10.0 mi NE 5.8 mph - N/A   Clear
5:56 AM 32.9 °F 28.5 °F 31.1 °F 93% 30.15 in 10.0 mi East 4.6 mph - N/A   Clear
6:56 AM 32.0 °F 27.5 °F 30.0 °F 92% 30.17 in 10.0 mi South 4.6 mph - N/A   Clear
7:56 AM 34.0 °F 29.8 °F 32.9 °F 96% 30.19 in 10.0 mi East 4.6 mph - N/A   Clear
8:56 AM 39.9 °F - 32.9 °F 76% 30.19 in 10.0 mi Calm Calm - N/A   Clear
9:56 AM 43.9 °F - 34.0 °F 68% 30.18 in 10.0 mi Calm Calm - N/A   Clear
10:56 AM 46.9 °F - 34.9 °F 63% 30.17 in 10.0 mi Variable 4.6 mph - N/A   Clear
11:56 AM 50.9 °F - 34.9 °F 54% 30.16 in 10.0 mi Variable 3.5 mph - N/A   Clear
12:56 PM 54.0 °F - 32.0 °F 43% 30.16 in 10.0 mi Variable 3.5 mph - N/A   Partly Cloudy
1:56 PM 54.0 °F - 32.0 °F 43% 30.13 in 10.0 mi WNW 5.8 mph - N/A   Scattered Clouds
2:56 PM 57.9 °F - 32.0 °F 37% 30.11 in 10.0 mi Variable 4.6 mph - N/A   Clear
3:56 PM 55.9 °F - 32.9 °F 42% 30.12 in 10.0 mi WNW 6.9 mph - N/A   Clear
4:56 PM 56.8 °F - 32.9 °F 40% 30.12 in 10.0 mi Variable 4.6 mph - N/A   Clear
5:56 PM 55.9 °F - 32.9 °F 42% 30.11 in 10.0 mi West 5.8 mph - N/A   Clear
6:56 PM 54.0 °F - 34.9 °F 49% 30.13 in 10.0 mi NW 6.9 mph - N/A   Clear
7:56 PM 45.9 °F 43.6 °F 37.9 °F 74% 30.15 in 10.0 mi NNE 4.6 mph - N/A   Clear
8:56 PM 41.0 °F 39.0 °F 36.0 °F 82% 30.16 in 10.0 mi South 3.5 mph - N/A   Clear
9:56 PM 41.0 °F 39.0 °F 34.9 °F 79% 30.14 in 10.0 mi South 3.5 mph - N/A   Clear
10:56 PM 36.9 °F 32.2 °F 34.0 °F 89% 30.16 in 10.0 mi ENE 5.8 mph - N/A   Clear
11:56 PM 36.0 °F 32.1 °F 32.9 °F 89% 30.13 in 10.0 mi South 4.6 mph - N/A   Clear